GW5488 Weather Reports


time (UTC)temp
F
wind
direction
speed
knots
gust
knots
rain 1hr
in
rain 24hr
in
rain mn
in
humidity
%
barometer
mb
20260503053303 34 273 1.7 4.3 0.00 0.14 0.00 90 1010.3
20260503052305 34 262 2.6 4.3 0.00 0.14 0.00 89 1010.4
20260503051304 34 264 1.7 4.3 0.00 0.14 0.00 89 1010.4
20260503050303 34 269 0.9 2.6 0.00 0.14 0.00 89 1010.4
20260503045803 34 272 0.0 0.9 0.00 0.14 0.00 89 1010.4
20260503045305 34 272 0.0 0.0 0.00 0.14 0.00 89 1010.4
20260503044804 34 272 0.0 0.9 0.00 0.14 0.00 89 1010.3
20260503044304 34 272 0.0 1.7 0.00 0.14 0.00 89 1010.3
20260503043804 34 274 0.9 1.7 0.00 0.14 0.00 89 1010.3
20260503042804 34 264 1.7 2.6 0.00 0.14 0.00 88 1010.3
20260503042305 34 266 0.9 2.6 0.00 0.14 0.00 88 1010.3
20260503041804 34 269 1.7 2.6 0.00 0.14 0.00 88 1010.3
20260503041304 34 267 1.7 4.3 0.00 0.14 0.00 88 1010.2
20260503040804 34 272 1.7 5.2 0.00 0.14 0.00 88 1010.2
20260503035803 34 277 1.7 2.6 0.00 0.14 0.00 88 1010.0
20260503035305 34 272 1.7 2.6 0.00 0.14 0.00 88 1010.0
20260503034803 34 271 0.9 2.6 0.00 0.14 0.00 88 1009.8
20260503034303 34 270 0.9 2.6 0.00 0.14 0.00 88 1009.9
20260503033303 34 271 1.7 4.3 0.00 0.14 0.00 88 1009.9
20260503032803 34 275 1.7 2.6 0.00 0.14 0.00 88 1009.8
20260503032304 34 268 0.9 2.6 0.00 0.14 0.00 88 1009.8
20260503031804 34 273 0.9 2.6 0.00 0.14 0.00 89 1009.9
20260503031304 34 272 0.9 2.6 0.00 0.14 0.00 89 1009.9
20260503030804 34 279 0.9 2.6 0.00 0.14 0.00 88 1009.9
20260503030303 34 271 0.9 2.6 0.00 0.14 0.00 88 1009.9
20260503025305 34 273 0.9 2.6 0.00 0.14 0.00 89 1010.0
20260503024804 34 271 1.7 2.6 0.00 0.14 0.00 88 1009.9
20260503024304 34 265 1.7 2.6 0.00 0.14 0.00 88 1009.9
20260503023803 34 271 1.7 2.6 0.00 0.14 0.00 88 1009.9
20260503023303 34 273 0.9 2.6 0.00 0.14 0.00 88 1009.8
20260503022803 34 273 0.0 2.6 0.00 0.14 0.00 88 1009.7
20260503022305 34 270 0.9 2.6 0.00 0.14 0.00 88 1009.7
20260503021303 34 271 0.9 2.6 0.00 0.14 0.00 89 1009.8
20260503020804 34 275 1.7 2.6 0.00 0.14 0.00 88 1009.8
20260503020303 34 260 1.7 4.3 0.00 0.14 0.00 88 1009.9
20260503015803 34 269 1.7 4.3 0.00 0.14 0.00 89 1010.0
20260503015305 34 268 1.7 4.3 0.00 0.14 0.00 88 1010.1
20260503014304 34 269 1.7 4.3 0.00 0.14 0.00 88 1010.1
20260503013804 34 270 1.7 2.6 0.00 0.14 0.00 89 1010.2
20260503012804 34 268 1.7 2.6 0.00 0.14 0.00 89 1010.2
20260503012305 34 270 0.9 2.6 0.00 0.14 0.00 89 1010.3
20260503011803 34 276 0.0 2.6 0.00 0.14 0.00 89 1010.3
20260503011303 34 278 1.7 2.6 0.00 0.14 0.00 89 1010.3
20260503010804 34 268 0.9 2.6 0.00 0.14 0.00 89 1010.3
20260503005804 34 271 0.9 1.7 0.00 0.15 0.00 89 1010.3
20260503005304 34 271 0.0 0.9 0.00 0.15 0.00 89 1010.4
20260503004804 34 271 0.0 0.9 0.00 0.15 0.00 89 1010.4
20260503004303 34 271 0.0 0.9 0.00 0.15 0.00 88 1010.5
20260503003804 34 272 0.9 2.6 0.00 0.15 0.00 88 1010.7
20260503003304 34 266 2.6 4.3 0.00 0.15 0.00 89 1010.8
20260503002804 34 268 0.9 2.6 0.00 0.15 0.00 88 1010.8
20260503002305 34 277 0.9 4.3 0.00 0.15 0.00 89 1010.8
20260503001803 34 275 0.9 2.6 0.00 0.15 0.00 89 1010.8
20260503001303 34 266 0.9 2.6 0.00 0.15 0.00 89 1010.8
20260503000804 34 266 0.9 2.6 0.00 0.15 0.00 89 1010.6
20260503000304 34 275 0.9 2.6 0.00 0.15 0.00 89 1010.6
20260502235804 34 270 0.0 1.7 0.00 0.15 0.00 88 1010.7
20260502234804 34 264 1.7 2.6 0.00 0.15 0.00 89 1010.7
20260502234304 34 263 1.7 2.6 0.00 0.15 0.00 88 1010.7
20260502233303 34 270 0.0 2.6 0.00 0.15 0.00 88 1010.8
20260502232803 34 271 1.7 4.3 0.00 0.15 0.00 88 1011.0
20260502232305 34 275 1.7 2.6 0.00 0.15 0.00 88 1010.9
20260502231804 34 271 1.7 2.6 0.00 0.15 0.00 88 1011.0
20260502231304 34 270 0.9 2.6 0.00 0.15 0.00 88 1010.8
20260502230303 34 270 1.7 2.6 0.00 0.16 0.00 88 1010.9
20260502224803 34 279 0.9 2.6 0.00 0.16 0.00 88 1010.9
20260502223803 35 264 0.9 2.6 0.00 0.16 0.00 88 1010.9
20260502223304 35 266 0.9 4.3 0.00 0.16 0.00 88 1010.9
20260502222804 35 267 1.7 5.2 0.00 0.16 0.00 88 1010.9
20260502222305 35 273 1.7 5.2 0.00 0.16 0.00 88 1010.9
20260502221304 35 269 2.6 5.2 0.00 0.16 0.00 88 1010.9
20260502220804 35 266 1.7 4.3 0.00 0.16 0.00 88 1010.9
20260502220304 35 269 1.7 2.6 0.00 0.16 0.00 88 1010.8
20260502215804 35 275 0.9 2.6 0.00 0.16 0.17 88 1010.9
20260502215305 35 274 0.9 2.6 0.00 0.16 0.17 88 1010.9
20260502214304 35 276 1.7 5.2 0.00 0.16 0.17 88 1010.8
20260502213803 35 270 1.7 4.3 0.00 0.16 0.17 88 1010.8
20260502213304 35 275 2.6 5.2 0.00 0.16 0.17 87 1010.8
20260502212803 35 263 1.7 4.3 0.00 0.16 0.17 87 1010.8
20260502212305 35 269 2.6 5.2 0.00 0.16 0.17 87 1010.8
20260502211804 35 266 2.6 5.2 0.00 0.16 0.17 87 1010.8
20260502210804 35 264 1.7 6.1 0.00 0.16 0.17 87 1010.9
20260502210304 35 271 1.7 5.2 0.00 0.16 0.17 87 1010.9
20260502205804 35 264 1.7 4.3 0.00 0.16 0.17 87 1010.9
20260502205305 35 264 1.7 4.3 0.00 0.16 0.17 87 1010.9
20260502204804 35 268 0.9 4.3 0.00 0.16 0.17 88 1010.9
20260502203804 35 262 2.6 7.8 0.00 0.16 0.17 88 1010.9
20260502203303 35 274 2.6 7.0 0.00 0.16 0.17 88 1011.0
20260502202804 35 256 4.3 8.7 0.00 0.16 0.17 88 1011.0
20260502202305 36 265 2.6 4.3 0.00 0.16 0.17 88 1011.0
20260502201804 35 273 0.9 2.6 0.00 0.16 0.17 89 1011.1
20260502201303 35 268 2.6 10.4 0.00 0.16 0.17 88 1011.0
20260502200803 35 270 1.7 6.1 0.00 0.16 0.17 88 1010.9
20260502195803 36 267 2.6 7.0 0.00 0.16 0.17 88 1011.0
20260502195305 36 282 2.6 8.7 0.00 0.16 0.17 87 1010.9
20260502194304 36 262 1.7 7.8 0.00 0.16 0.17 88 1010.9
20260502193804 36 272 3.5 8.7 0.00 0.16 0.17 87 1010.8
20260502193303 36 276 1.7 7.0 0.00 0.16 0.17 88 1010.7
20260502192803 36 263 2.6 7.8 0.00 0.16 0.17 88 1010.6
20260502192305 36 271 2.6 7.8 0.00 0.16 0.17 87 1010.6
20260502191804 36 269 3.5 7.0 0.00 0.16 0.17 87 1010.6
20260502191304 36 272 1.7 5.2 0.00 0.16 0.17 87 1010.6
20260502190803 36 275 2.6 7.0 0.00 0.16 0.17 87 1010.6
20260502185804 36 265 4.3 8.7 0.00 0.16 0.17 86 1010.6
20260502185305 36 248 3.5 10.4 0.00 0.16 0.17 86 1010.5
20260502184804 36 255 3.5 6.1 0.00 0.16 0.17 87 1010.6
20260502184304 36 260 4.3 7.8 0.00 0.16 0.17 86 1010.4
20260502183304 36 263 4.3 10.4 0.00 0.16 0.17 87 1010.4
20260502182803 37 255 4.3 8.7 0.00 0.16 0.17 87 1010.5
20260502182305 37 278 5.2 10.4 0.00 0.16 0.17 88 1010.5
20260502181804 37 261 3.5 7.8 0.00 0.16 0.17 89 1010.4
20260502181304 37 266 4.3 10.4 0.00 0.16 0.17 88 1010.4
20260502180804 37 254 6.1 10.4 0.00 0.16 0.17 88 1010.3
20260502180304 37 265 5.2 8.7 0.00 0.16 0.17 89 1010.3
20260502170303 37 268 3.5 7.8 0.00 0.16 0.17 91 1010.2
20260502164303 37 263 4.3 8.7 0.00 0.16 0.17 90 1010.2
20260502163304 37 263 4.3 8.7 0.00 0.16 0.17 90 1010.2
20260502162804 37 268 5.2 10.4 0.00 0.16 0.17 90 1010.3
20260502162304 37 264 2.6 7.0 0.00 0.16 0.17 90 1010.3
20260502161803 37 272 0.9 4.3 0.00 0.16 0.17 90 1010.3
20260502161303 37 278 1.7 6.1 0.00 0.16 0.17 91 1010.3
20260502160804 37 279 2.6 7.8 0.00 0.16 0.17 90 1010.3
20260502160304 37 284 3.5 7.8 0.00 0.16 0.17 90 1010.3
20260502151804 37 275 1.7 8.7 0.00 0.16 0.17 91 1010.2
20260502151304 37 274 2.6 11.3 0.00 0.16 0.17 91 1010.2
20260502150804 37 263 6.1 10.4 0.00 0.16 0.17 90 1010.2
20260502150304 37 269 5.2 8.7 0.00 0.16 0.17 90 1010.2
20260502130304 39 272 5.2 10.4 0.01 0.15 0.16 91 1009.7
20260502123804 39 267 2.6 7.8 0.01 0.15 0.16 91 1009.6
20260502123304 40 268 4.3 7.8 0.01 0.15 0.16 91 1009.5
20260502122804 40 276 2.6 7.8 0.01 0.15 0.16 91 1009.5
20260502122306 40 268 3.5 10.4 0.02 0.15 0.16 91 1009.5
20260502121804 41 272 3.5 7.0 0.01 0.14 0.15 91 1009.5
20260502121304 41 274 2.6 7.8 0.01 0.14 0.15 92 1009.5
20260502120803 41 263 4.3 8.7 0.01 0.14 0.15 92 1009.5
20260502120304 41 278 2.6 7.8 0.01 0.14 0.15 92 1009.4
20260502115804 41 271 4.3 10.4 0.02 0.14 0.15 92 1009.3
20260502115306 42 270 1.7 8.7 0.02 0.14 0.15 92 1009.3
20260502114804 42 271 2.6 6.1 0.02 0.14 0.15 91 1009.3
20260502114304 43 279 1.7 6.1 0.02 0.14 0.15 91 1009.2
20260502113304 43 272 0.9 1.7 0.03 0.14 0.15 91 1009.2
20260502111304 43 278 0.0 2.6 0.02 0.14 0.14 91 1009.1
20260502110804 44 278 0.9 1.7 0.02 0.14 0.14 91 1009.1
20260502110304 44 269 0.9 2.6 0.02 0.14 0.14 91 1009.0
20260502105803 44 277 0.0 0.9 0.02 0.14 0.14 91 1008.9
20260502105306 43 277 0.9 2.6 0.01 0.13 0.13 91 1008.9
20260502104804 43 266 0.9 1.7 0.01 0.13 0.13 91 1009.0
20260502104304 44 264 1.7 2.6 0.01 0.13 0.13 91 1009.0
20260502103804 44 270 0.9 2.6 0.01 0.12 0.12 90 1008.9
20260502103304 44 275 0.0 1.7 0.01 0.12 0.12 90 1008.9
20260502102804 44 267 1.7 2.6 0.01 0.12 0.12 90 1008.9
20260502102306 44 266 0.0 2.6 0.02 0.12 0.12 89 1008.8
20260502101804 44 267 0.0 1.7 0.02 0.12 0.12 90 1008.7
20260502101303 44 272 1.7 2.6 0.02 0.12 0.12 90 1008.7
20260502100803 44 268 0.0 1.7 0.02 0.12 0.12 91 1008.7
20260502100303 43 263 0.9 2.6 0.02 0.12 0.12 90 1008.6
20260502090803 43 250 1.7 2.6 0.03 0.10 0.10 91 1008.9
20260502090304 43 264 0.9 2.6 0.04 0.10 0.10 91 1008.9
20260502071304 43 273 0.9 2.6 0.01 0.03 0.03 87 1008.6
20260502070803 44 264 0.0 1.7 0.01 0.03 0.03 87 1008.7
20260502065306 44 262 0.9 2.6 0.01 0.03 0.03 85 1008.6
20260502064804 44 267 0.9 2.6 0.00 0.02 0.02 85 1008.6
20260502064304 44 268 0.0 1.7 0.00 0.02 0.02 85 1008.4
20260502063803 44 254 0.9 2.6 0.00 0.02 0.02 85 1008.4
20260502062803 44 267 0.0 0.9 0.00 0.02 0.02 83 1008.3
20260502061304 44 272 0.9 1.7 0.00 0.02 0.02 82 1008.2
20260502060803 45 272 0.9 2.6 0.00 0.02 0.02 81 1008.2
20260502060304 45 270 1.7 2.6 0.00 0.02 0.02 80 1008.0
20260502055803 45 270 0.9 1.7 0.00 0.02 0.02 79 1008.1
20260502055305 45 270 1.7 2.6 0.00 0.02 0.02 79 1008.1
20260502054804 45 269 0.0 1.7 0.00 0.02 0.02 79 1008.1
20260502054304 45 262 0.9 7.0 0.00 0.02 0.02 77 1008.1
20260502053804 45 255 2.6 6.1 0.00 0.02 0.02 76 1008.1